Weather History for KMCW - January, 2012

Change the Weather History Date:

Friday, January 27, 2012

  Actual Average Record
Temperature  
Mean Temperature 26 °F 16 °F  
Max Temperature 34 °F 25 °F 57 °F (1944)
Min Temperature 17 °F 7 °F -24 °F (1904)
Degree Days  
Heating Degree Days 39 49  
Month to date heating degree days 1158 1323  
Since 1 July heating degree days 3810 4412  
Cooling Degree Days 0 0  
Month to date cooling degree days 0 0  
Year to date cooling degree days 0 0  
Moisture  
Dew Point 24 °F    
Average Humidity 74    
Maximum Humidity 89    
Minimum Humidity 59    
Precipitation  
Precipitation T in 0.02 in 0.78 in (1944)
Month to date precipitation 0.58 0.70  
Year to date precipitation 0.58 0.70  
Snow  
Snow T in 0.40 in 5.00 in (1923)
Month to date snowfall 9.2 9.4  
Since 1 July snowfall 14.6 23.4  
Snow Depth 7.00 in    
Sea Level Pressure  
Sea Level Pressure 29.89 in    
Wind  
Wind Speed 14 mph (WSW)    
Max Wind Speed 31 mph    
Max Gust Speed 40 mph    
Visibility 8 miles    
Events Snow    
T = Trace of Precipitation, MM = Missing Value Source: NWS Daily Summary

Daily Weather History Graph

Daily Weather History Graph

Search for Another Location

Airport or City:

Trip Planner

Search our weather history database for the weather conditions in past years. The results will help you decide how hot, cold, wet, or windy it might be!

Date:

Astronomy

Jan. 27, 2012 Rise Set
Actual Time 7:34 AM CST 5:18 PM CST
Civil Twilight 7:03 AM CST 5:49 PM CST
Nautical Twilight 6:29 AM CST 6:23 PM CST
Astronomical Twilight 5:55 AM CST 6:57 PM CST
Moon 9:19 AM CST (1/27) 10:19 PM CST (1/27)
Length of Visible Light 10h 45m
Length of Day
9h 44m
Waxing Crescent, 20% of the Moon is Illuminated
Jan 27
Waxing Crescent
Jan 30
First Quarter
Feb 7
Full
Feb 14
Last Quarter
Feb 21
New

Hourly Weather History & Observations

Time (CST) Temp. Windchill Dew Point Humidity Pressure Visibility Wind Dir Wind Speed Gust Speed Precip Events Conditions
12:53 AM 25.0 °F 14.2 °F 18.0 °F 75% 29.86 in 10.0 mi NW 11.5 mph - N/A   Clear
1:53 AM 23.0 °F 11.7 °F 16.0 °F 74% 29.87 in 10.0 mi WNW 11.5 mph - N/A   Clear
2:53 AM 21.0 °F 14.6 °F 15.1 °F 78% 29.88 in 10.0 mi WNW 4.6 mph - N/A   Clear
3:53 AM 21.0 °F 12.4 °F 15.1 °F 78% 29.89 in 10.0 mi West 6.9 mph - N/A   Partly Cloudy
4:53 AM 19.9 °F 14.9 °F 14.0 °F 78% 29.89 in 10.0 mi West 3.5 mph - N/A   Scattered Clouds
5:53 AM 21.0 °F 16.2 °F 15.1 °F 78% 29.89 in 10.0 mi West 3.5 mph - N/A   Mostly Cloudy
6:53 AM 19.0 °F - 15.1 °F 85% 29.91 in 10.0 mi Calm Calm - N/A   Clear
7:53 AM 19.0 °F 12.3 °F 15.1 °F 85% 29.91 in 10.0 mi SSW 4.6 mph - N/A   Mostly Cloudy
8:53 AM 26.1 °F 16.8 °F 18.0 °F 71% 29.91 in 10.0 mi SSW 9.2 mph - N/A   Overcast
9:53 AM 28.4 °F 19.1 °F 19.4 °F 69% 29.89 in 10.0 mi SSW 10.4 mph - N/A   Overcast
10:53 AM 32.0 °F 21.6 °F 19.4 °F 60% 29.90 in 10.0 mi SSW 15.0 mph 19.6 mph N/A   Overcast
11:22 AM 30.2 °F 20.2 °F 24.8 °F 80% 29.90 in 2.5 mi WSW 12.7 mph - 0.00 in Snow Light Snow
11:41 AM 30.2 °F 18.1 °F 26.6 °F 86% 29.89 in 1.2 mi SW 18.4 mph - 0.00 in Snow Light Snow
11:53 AM 30.9 °F 19.4 °F 28.0 °F 89% 29.92 in 0.8 mi SW 17.3 mph - 0.00 in Snow Light Snow
12:02 PM 30.2 °F 19.3 °F 28.4 °F 93% 29.88 in 1.0 mi SSW 15.0 mph - 0.00 in Snow Light Snow
12:22 PM 32.0 °F 22.1 °F 28.4 °F 87% 29.87 in 0.8 mi SSW 13.8 mph - 0.00 in Snow Light Snow
12:29 PM 32.0 °F 22.1 °F 28.4 °F 87% 29.86 in 2.0 mi SSW 13.8 mph - 0.00 in Snow Light Snow
12:36 PM 32.0 °F 22.1 °F 28.4 °F 87% 29.85 in 6.0 mi South 13.8 mph - 0.00 in Snow Light Snow
12:53 PM 32.0 °F 21.6 °F 28.9 °F 88% 29.87 in 10.0 mi South 15.0 mph - 0.00 in   Overcast
1:06 PM 32.0 °F 21.6 °F 30.2 °F 93% 29.83 in 10.0 mi South 15.0 mph - N/A   Overcast
1:27 PM 33.8 °F 23.5 °F 30.2 °F 87% 29.82 in 10.0 mi South 16.1 mph - N/A   Overcast
1:41 PM 33.8 °F 24.3 °F 30.2 °F 87% 29.82 in 10.0 mi South 13.8 mph - N/A   Overcast
1:53 PM 33.1 °F 23.4 °F 30.0 °F 89% 29.84 in 10.0 mi South 13.8 mph - N/A   Overcast
2:53 PM 34.0 °F 23.4 °F 30.0 °F 85% 29.86 in 10.0 mi SSW 17.3 mph - N/A   Overcast
3:24 PM 33.8 °F 23.2 °F 28.4 °F 81% 29.83 in 1.8 mi SW 17.3 mph - 0.00 in Snow Light Snow
3:31 PM 33.8 °F 23.5 °F 28.4 °F 81% 29.82 in 1.2 mi SW 16.1 mph 27.6 mph 0.00 in Snow Light Snow
3:41 PM 33.8 °F 23.2 °F 28.4 °F 81% 29.82 in 3.0 mi SW 17.3 mph 27.6 mph 0.00 in Snow Light Snow
3:53 PM 34.0 °F 23.8 °F 28.9 °F 82% 29.85 in 9.0 mi SW 16.1 mph 23.0 mph 0.00 in   Overcast
4:53 PM 34.0 °F 23.4 °F 30.0 °F 85% 29.86 in 6.0 mi WSW 17.3 mph - 0.00 in   Overcast
5:38 PM 32.0 °F 18.6 °F 28.4 °F 87% 29.86 in 6.0 mi WNW 25.3 mph 32.2 mph 0.00 in   Overcast
5:50 PM 32.0 °F 17.6 °F 26.6 °F 80% 29.87 in 7.0 mi NW 29.9 mph 36.8 mph 0.00 in   Overcast
5:53 PM 32.0 °F 18.1 °F 27.0 °F 82% 29.90 in 8.0 mi NW 27.6 mph 36.8 mph 0.00 in   Overcast
6:53 PM 30.9 °F 17.2 °F 25.0 °F 79% 29.94 in 10.0 mi WNW 25.3 mph 31.1 mph N/A   Overcast
7:26 PM 30.2 °F 15.9 °F 23.0 °F 75% 29.92 in 10.0 mi NW 26.5 mph 40.3 mph N/A   Overcast
7:53 PM 28.9 °F 14.3 °F 21.0 °F 72% 29.96 in 10.0 mi NW 26.5 mph 35.7 mph N/A   Overcast
8:53 PM 27.0 °F 13.5 °F 19.9 °F 75% 29.98 in 10.0 mi NW 19.6 mph 28.8 mph N/A   Mostly Cloudy
9:53 PM 26.1 °F 12.0 °F 18.0 °F 71% 29.99 in 10.0 mi WNW 20.7 mph 27.6 mph N/A   Clear
10:53 PM 24.1 °F 9.8 °F 16.0 °F 71% 30.02 in 10.0 mi WNW 19.6 mph - N/A   Clear
11:53 PM 23.0 °F 9.2 °F 15.1 °F 72% 30.02 in 10.0 mi WNW 17.3 mph - N/A   Clear